Miscellaneous Local Product
Issued by NWS North Platte, NE

Current Version | Previous Version | Text Only | Print | Product List | Glossary On
Versions: 1 2 3 4 5 6 7 8 9 10 11 12 13 14 15 16 17 18 19 20 21 22 23 24 25 26 27 28 29 30 31 32 33 34 35 36 37 38 39 40 41 42 43 44 45 46 47 48 49 50
000
AXUS43 KLBF 290910
MISLBF


WESTERN AND NORTH CENTRAL NEBRASKA HOURLY WEATHER ROUNDUP
NATIONAL WEATHER SERVICE NORTH PLATTE NE
400 AM CDT FRI MAY 29 2015

***STATIONS NOT REPORTING VARIABLES SUCH AS SKY/WEATHER OR
PRESSURE ARE PROVIDED BY THE NEBRASKA DEPARTMENT OF
ROADS...RAWS...AND APRS NETWORKS...AND ARE NOT UNDER
NATIONAL WEATHER SERVICE QUALITY CONTROL***

...OBSERVATIONS IN AND NEAR THE EASTERN PANHANDLE OF NEBRASKA...

CITY           SKY/WX    TMP DP  RH WIND       PRES   REMARKS
PINE RIDGE     CLOUDY    56  52  86 W5        30.03R
CHADRON        CLOUDY    55  52  89 SW5       30.04R
ALLIANCE       PTCLDY    52  49  89 NW8       30.04F
SIDNEY         MOCLDY    52  49  89 NW12      30.07R
WHITECLAY        N/A     55  51  86 NW6         N/A
BIG SPRINGS      N/A     56  52  88 CALM        N/A
$$

...OBSERVATIONS IN NORTH CENTRAL NEBRASKA...

CITY           SKY/WX    TMP DP  RH WIND       PRES   REMARKS
VALENTINE      CLOUDY    56  54  93 W8        29.94S
THEDFORD       CLOUDY    56  54  92 W9        29.98S
AINSWORTH      CLOUDY    58  55  90 W8        29.93F
O`NEILL        CLOUDY    59  58  96 W8        29.90R
ORD            CLOUDY    59  56  89 SW6       29.88F
BROKEN BOW     CLOUDY    59  57  93 E3        29.91S
BROWNLEE         N/A     58  56  91 W10         N/A
SPRINGVIEW       N/A     58  55  90 MISG        N/A
BREWSTER         N/A     60  59  94 W8          N/A
ROSE             N/A     61  61  99 SW7         N/A
NEWPORT          N/A     60  59  95 W8          N/A
SARGENT          N/A     58  57  97 CALM        N/A
COMSTOCK         N/A     61  61  99 SW7         N/A
EWING            N/A     60  58  92 CALM        N/A
$$

...OBSERVATIONS IN SOUTHWEST NEBRASKA AND FAR NORTHEAST COLORADO...

CITY           SKY/WX    TMP DP  RH WIND       PRES   REMARKS
WRAY           FAIR      54  54 100 W8        30.04S
HOLYOKE        PTSUNNY   59  52  77 N8        30.03R
IMPERIAL       CLOUDY    56  52  86 NW6       30.00R
OGALLALA       CLOUDY    56  53  89 W8        30.00F
NORTH PLATTE   CLOUDY    54  53  97 W5        29.98R
MCCOOK         MOCLDY    54  52  93 SW14      29.96F
LEXINGTON      CLOUDY    55  53  93 S5        29.91F
PAXTON           N/A     57  54  90 CALM        N/A
GOTHENBURG       N/A     56  51  85 W5          N/A
CALLAWAY         N/A     56  55  96 W8          N/A
$$

...NORTH PLATTE AREA...

CITY           SKY/WX    TMP DP  RH WIND       PRES   REMARKS
AIRPORT        CLOUDY    54  53  97 W5        29.98R
DOWNTOWN         N/A     56  53  90 CALM        N/A
$$

...SOME WEATHER OBSERVATIONS FROM AROUND THE REGION...

CITY           SKY/WX    TMP DP  RH WIND       PRES   REMARKS
DENVER         PTCLDY    51  47  86 NE3       30.15R
LARAMIE        CLOUDY    44  38  79 E6        30.20F
CHEYENNE       CLOUDY    48  41  76 W7        30.16S
SCOTTSBLUFF    PTCLDY    50  48  93 NW6       30.06F
RAPID CITY     CLOUDY    56  52  86 NW21G30   30.04R
PIERRE         LGT RAIN  60  59  96 NW13      29.88R
WINNER         CLOUDY    61  56  83 W12       29.90R
SIOUX FALLS    CLOUDY    64  63  96 S3        29.83F
OMAHA          CLOUDY    66  63  90 SE10      29.88F
GRAND ISLAND   CLOUDY    61  58  90 W10       29.90S
KANSAS CITY    MOCLDY    62  61  96 SE5       29.93F
WICHITA        MOCLDY    65  63  93 SE8       29.90S
HAYS           CLOUDY    57  50  77 E3        29.96S
LIBERAL        CLOUDY    57  54  88 NW7       30.01R VSB 3/4
GOODLAND       PTCLDY    52  49  89 W9        30.04S
$$



USA.gov is the U.S. government's official web portal to all federal, state and local government web resources and services.